Torna al catalogo

FLOCK 4BE 19

AttivoScienzaSSO
NORAD 60563·PAYLOAD·🇺🇸 United States

Lanciato Aug 16, 2024 da Vandenberg Space Force Base

Loading…

Prossimi Passaggi (prossime 24 ore)

TLE

AggiornatoSource: CelesTrak SupGP

Epoca: Sep 14, 2026, 10:45 UTC

1 60563C 24149AQ  26257.44800926  .00051816  00000+0  97619-3 0  2577
2 60563  97.3699 344.4231 0003725 332.0966 132.9542 15.48489134    16

Traccia FLOCK 4BE 19 in tempo reale con AllMySat

Download on the App Store